Notices

What's New in latest Release from April 7th, 2021:

- Updated Glossary, including Speed of Maximum Gust, and Total Hourly Precipitation

- Updated national and regional climate services offices contacts and prices information

- Addition of station inventory lists for 1981-2010, 1971-2000, and 1961-1990 Normals.

If you haven't already, please take our survey and provide feedback about our website: https://eccc.sondage-survey.ca/f/LanguageSelection.aspx?s=442ca660-fcf1-47c0-95a9-59707d6fd709

Hourly Data Report for January 30, 2004

SHERBROOKE A
QUEBEC

45°26'00.000" N
71°41'00.000" W
241.40 m
7028124
71610
YSC

Download Data

Hourly Data (January 2004)
Hourly Data Report for January 30, 2004
TIME
LST
Temp Definition
°C
Dew Point Definition
°C
Rel Hum Definition
%
Precip. Amount Definition
mm

Wind Dir Definition
10's deg

Wind Spd Definition
km/h
Visibility Definition
km
Stn Press Definition
kPa
Hmdx Definition


Wind Chill Definition


Weather Definition


00:00 -15.0 -19.7 67   27 15 9.7 97.02   -23  
01:00 -15.3 -20.4 65   27 28 8.0 96.95   -26  
02:00 -15.7 -20.5 67   26 20 6.4 96.90   -25  
03:00 -16.2 -20.8 68   26 15 6.4 96.85   -24  
04:00 -16.7 -20.6 72   25 11 3.4 96.84   -24  
05:00 -16.9 -21.2 69   25 15 4.0 96.83   -25  
06:00 -17.4 -21.8 69   24 15 3.7 96.82   -26  
07:00 -17.4 -22.1 67   25 19 8.0 96.83   -27  
08:00 -17.4 -22.1 67   25 13 6.4 96.82   -25 Snow
09:00 -17.2 -21.6 69   26 24 4.8 96.81   -28 Snow
10:00 -16.7 -21.3 67   25 20 2.4 96.76   -26 Snow
11:00 -16.7 -21.1 69   24 20 3.2 96.69   -26 Snow
12:00 -15.8 -21.1 64   24 20 8.0 96.60   -25 Snow,Blowing Snow
13:00 -15.6 -20.9 64   26 20 16.1 96.54   -25 Snow Showers
14:00 -15.5 -21.0 63   25 17 9.7 96.54   -24 Snow Showers
15:00 -15.2 -21.0 61   26 19 19.3 96.58   -24 Snow Showers
16:00 -15.8 -22.1 58   26 20 19.3 96.64   -25 Snow Showers
17:00 -16.6 -21.4 66   26 11 24.1 96.69   -24 Snow Showers
18:00 -17.0 -21.7 67   25 11 8.0 96.76   -24 Snow
19:00 -17.7 -22.4 67   26 9 15.0 96.82   -24  
20:00 -17.2 -22.1 66   26 15 15.0 96.87   -26  
21:00 -18.7 -22.7 71   22 6 15.0 96.90   -24 Snow
22:00 -19.3 -23.0 72   20 6 2.9 96.94   -24 Snow
23:00 -19.1 -22.8 72   21 7 15.0 96.93   -25 Snow

Notes on Data Quality.

Legend

  • E = Estimated
  • M = Missing
  • NA = Not Available*
  • [empty] = Indicates an unobserved value
Date modified: